{"data":{"norad_id":59847,"epoch":"2026-05-25T04:52:40.609056Z","epoch_age_seconds":64663,"freshness":"FRESH","line1":"1 59847U 24097N   26145.20324779 -.00000360  00000+0 -35549-5 0  9998","line2":"2 59847  43.0017 202.6754 0000943 279.8290  80.2455 15.27574788113619","mean_motion":15.27574788,"eccentricity":9.43e-5,"inclination_deg":43.0017,"raan_deg":202.6754,"arg_perigee_deg":279.829,"mean_anomaly_deg":80.2455,"bstar":-3.5549e-6,"rev_number":11361,"period_min":94.267070346542,"perigee_km":482.41769136647,"apogee_km":483.7117140076,"semimajor_km":6861.201702687,"source":"CELESTRAK","updated_at":"2026-05-25T13:38:19.087696Z"}}